Regional Weather Roundup
Issued by NWS Jackson, KY

Home | Current Version | Previous Version | Graphics & Text | Print | Product List | Glossary On
Versions: 1 2 3 4 5 6 7 8 9 10 11 12 13 14 15 16 17 18 19 20 21 22 23 24 25 26 27 28 29 30 31 32 33 34 35 36 37 38 39 40 41 42 43 44 45 46 47 48 49 50
000
ASUS43 KJKL 292010
RWRJKL

EAST KENTUCKY HOURLY WEATHER ROUNDUP
NATIONAL WEATHER SERVICE JACKSON KY
400 PM EDT SUN MAR 29 2015

NOTE: "FAIR" INDICATES FEW OR NO CLOUDS BELOW 12,000 FEET WITH
NO SIGNIFICANT WEATHER AND/OR OBSTRUCTIONS TO VISIBILITY.

* THESE REPORTS ARE NOT UNDER NWS QUALITY CONTROL AND MAY NOT
  REPORT WEATHER SUCH AS PRECIPITATION AND FOG.

KYZ079-080-083-085-087-088-110-112-115-119-120-292100
...EASTERN KENTUCKY...

CITY           SKY/WX    TMP DP  RH WIND       PRES   REMARKS
JACKSON        SUNNY     55   6  14 VRB3      30.19F
LONDON         SUNNY     56   7  14 SE8G17    30.17F
SOMERSET*      MOSUNNY   57  12  17 SW7       30.18F
MONTICELLO*    SUNNY     60  10  14 SW9       30.19F
MIDDLESBORO*   SUNNY     54  10  17 SE6       30.21F
HAZARD APT*    CLEAR     55   5  13 W6G17     30.19F
BLACK MTN*       N/A     41   7  24 S5          N/A
PIKEVILLE APT* SUNNY     54   9  16 S5        30.18F
BIG SANDY*     CLEAR     54   8  16 SW13G21   30.19F
MOREHEAD APT*  CLEAR     52   3  14 VRB6G15   30.18F
$$

KYZ035-036-041-042-044-050-067-078-099-292100
...CENTRAL KENTUCKY...

CITY           SKY/WX    TMP DP  RH WIND       PRES   REMARKS
MT STERLING*   MOSUNNY   54  12  19 SW15G22   30.17F
FLEMING/MASON* SUNNY     50  10  20 S15G23    30.16F
DANVILLE*      SUNNY     55  14  19 S17G24    30.15F
RICHMOND*      SUNNY     55   7  14 S13G20    30.15F
LEXINGTON      MOSUNNY   55  10  16 S18G24    30.14F
FRANKFORT      MOSUNNY   56   7  14 S14       30.11F
$$

KYZ091>093-OHZ055-061-077-WVZ005-015-034-035-042-292100
...SOUTHERN OHIO/WEST VIRGINIA...

CITY           SKY/WX    TMP DP  RH WIND       PRES   REMARKS
COVINGTON      CLOUDY    49  14  24 S18G24    30.10F
COLUMBUS       CLOUDY    45  10  24 S17G24    30.12F
DAYTON         CLOUDY    47  14  26 S17G26    30.05F
WILMINGTON     PTSUNNY   46  17  31 S22G28    30.10F
HUNTINGTON     SUNNY     51   4  14 S14G20    30.19F
CHARLESTON     MOSUNNY   50   3  14 VRB3      30.20F
PINEVILLE*     SUNNY     54  10  17 MISG      30.24F
BECKLEY        SUNNY     47  -4  12 SW13G18   30.19F
BLUEFIELD      SUNNY     51  -3  10 VRB3      30.20F
$$

VAZ002-007-008-TNZ017-027-036-066-071-292100
...SOUTHWEST VIRGINIA/EAST TENNESSEE...

CITY           SKY/WX    TMP DP  RH WIND       PRES   REMARKS
WISE*          SUNNY     50   1  13 W8G18     30.21F
JONESVILLE*    CLEAR     54   1  12 SW7G16    30.25F
ABINGDON*      SUNNY     53  -4   9 W14       30.23F
BRISTOL        MOSUNNY   54   2  12 W15G23    30.24F
KNOXVILLE      SUNNY     56  14  19 W12       30.23F
OAK RIDGE      SUNNY     58  13  17 VRB7      30.24F
CROSSVILLE     SUNNY     54  11  18 SW13G20   30.21F
NASHVILLE      MOSUNNY   62  26  25 S15G23    30.16F
$$

...KEY TO REMARKS...
VSB - VISIBILITY IN MILES
WCI - WIND CHILL INDEX
HX  - HEAT INDEX

$$



USA.gov is the U.S. government's official web portal to all federal, state and local government web resources and services.